Weather in Gorai

Russia / Pskov Oblast     57°07′55″N   28°31′15″E
temp.,
°C
wind,
m/s
gust,
m/s
humid.,
%
clouds,
%
prec.,
mm/h
press.,
hPa
HPBL,
m
19 may, wed
wed1900:00+14w1196100 0.6 100120
03:00+14sse1197100 0.6 100011
06:00+14sse1197100 0.0 100041
09:00+16wnw1192100 0.3 999296
12:00+16sse119298 1.8 999233
15:00+15w3695100 4.1 1001418
18:00+15wsw348999 0.3 1002507
21:00+12w3692100 0.3 1004352
20 may, thu
thu2000:00+10wnw3590100 0.0 1005386
03:00+10w2591100 0.0 1005468
06:00+10wnw3689100 0.0 1006459
09:00+10nw4784100 0.0 1005611
12:00+12nw4781100 0.1 1005891
15:00+11wnw5993100 1.4 1005718
18:00+10nw51388100 1.8 1006881
21:00+10wnw2784100 1.8 1006321
21 may, fri
fri2100:00+8w412888 0.0 1007461
03:00+6wsw411854 0.0 1008424
06:00+6sw411900 0.0 1008381
09:00+10sw69680 0.0 1009798
12:00+13wsw795683 0.2 10091706
15:00+16wsw7113946 0.8 10092819
18:00+15wsw511445 0.0 10102435
21:00+10sw4107238 0.1 1012408
22 may, sat
sat2200:00+10ssw41280100 0.1 1013568
03:00+8s41185100 0.1 1013284
06:00+9s51481100 0.0 1012443
09:00+13s51368100 0.0 1011879
12:00+11s61590100 1.5 10111282
15:00+11ssw51292100 2.7 1011890
18:00+14ssw3886100 0.2 1010556
21:00+12s3996100 2.3 1011354
23 may, sun
sun2300:00+11se269887 0.9 1009170
03:00+10se31196100 0.9 1008331
06:00+11sse51294100 0.2 1006443
09:00+12se41195100 0.9 1005670
12:00+12s41294100 3.3 1003772
15:00+11wnw4996100 6.0 1003539
18:00+13sw488997 0.9 1004746
21:00+11wsw389399 1.3 1006426